Location: Hamburg
(53.5500°N, 10.0000°E)
Time: 06:14:39
(UTC+02:00)

Vanguard 1 Rocket - Visible Passes

Search period start: 31 August 2014 00:00
Search period end: 10 September 2014 00:00
Orbit: 651 x 4229 km, 34.3° (Epoch: 27 August)

Date Brightness Start Highest point End Pass type
(mag) Time Alt. Az. Time Alt. Az. Time Alt. Az.
31 Aug 11.5 00:06:48 10° WSW 00:17:39 15° SW 00:28:20 10° SSW visible
31 Aug 11.2 20:20:17 10° WSW 20:38:10 39° SSW 21:00:22 10° SE visible
31 Aug 11.4 22:50:09 10° W 23:05:56 22° SW 23:21:33 11° S visible
01 Sep 11.4 21:36:24 10° W 21:53:38 30° SSW 22:13:11 10° SSE visible
02 Sep 11.7 00:17:05 10° WSW 00:19:50 10° WSW 00:22:35 10° SW visible
02 Sep 11.3 20:24:04 10° WSW 20:40:58 35° SSW 21:02:20 10° SSE visible
02 Sep 11.6 22:55:12 10° W 23:08:19 18° SW 23:22:10 10° SSW visible
03 Sep 11.5 21:40:40 10° W 21:56:14 25° SW 22:14:11 10° S visible
04 Sep 11.4 20:28:02 10° W 20:43:47 31° SSW 21:03:55 10° SSE visible
04 Sep 11.7 23:01:47 10° WSW 23:10:43 13° SW 23:20:09 10° SSW visible
05 Sep 11.7 21:45:25 10° WSW 21:58:51 20° SW 22:14:23 10° S visible
06 Sep 11.5 20:32:16 10° WSW 20:46:37 27° SSW 21:05:00 10° SSE visible
07 Sep 11.8 21:51:09 10° WSW 22:01:31 16° SW 22:13:18 10° SSW visible
08 Sep 11.6 20:36:54 10° WSW 20:49:30 22° SW 21:05:26 10° S visible
09 Sep 11.9 22:00:11 10° WSW 22:04:14 11° SW 22:08:30 10° SW visible
